Back to catalog

FENGYUN 1C DEB

AliveSSO
NORAD 30044·DEBRIS·🇨🇳 China

Launched May 10, 1999 from Taiyuan Satellite Launch Center

Loading…

Next Passes (next 24 hours)

TLE

FreshSource: Space-Track

Epoch: Sep 14, 2026, 11:07 UTC

1 30044U 99025NV  26257.46345754  .00005745  00000-0  12949-2 0  9994
2 30044  98.2076 177.1507 0077391  38.3800 322.2868 14.54879477 20427

Track FENGYUN 1C DEB in real time with AllMySat

Download on the App Store